Weather History for KEDJ - December, 2013

Change the Weather History Date:

Monday, December 23, 2013

  Actual Average (KDAY) Record (KDAY)
Temperature  
Mean Temperature 28 °F 29 °F  
Max Temperature 33 °F 36 °F 59 °F (1957)
Min Temperature 23 °F 22 °F -8 °F (1960)
Degree Days  
Heating Degree Days 36 36  
Month to date heating degree days 755  
Since 1 July heating degree days 1866  
Cooling Degree Days 0 0  
Month to date cooling degree days 0  
Year to date cooling degree days 891  
Moisture  
Dew Point 25 °F    
Average Humidity 83    
Maximum Humidity 100    
Minimum Humidity 69    
Precipitation  
Precipitation 0.00 in 0.10 in 2.65 in (1941)
Month to date precipitation 2.30  
Year to date precipitation 40.23  
Snow  
Snow 0.00 in 0.10 in 4.10 in (1961)
Month to date snowfall 2.9  
Since 1 July snowfall 3.9  
Snow Depth -    
Sea Level Pressure  
Sea Level Pressure 30.20 in    
Wind  
Wind Speed 11 mph (West)    
Max Wind Speed 15 mph    
Max Gust Speed 22 mph    
Visibility 10 miles    
Events      
T = Trace of Precipitation, MM = Missing Value Source: NWS Daily Summary

Daily Weather History Graph

Daily Weather History Graph

Search for Another Location

Airport or City:

Trip Planner

Search our weather history database for the weather conditions in past years. The results will help you decide how hot, cold, wet, or windy it might be!

Date:

Astronomy

Dec. 23, 2013 Rise Set
Actual Time 7:55 AM EST 5:13 PM EST
Civil Twilight 7:25 AM EST 5:44 PM EST
Nautical Twilight 6:50 AM EST 6:18 PM EST
Astronomical Twilight 6:17 AM EST 6:51 PM EST
Moon 11:23 PM EST (12/23) 11:19 AM EST (12/23)
Length of Visible Light 10h 19m
Length of Day
9h 17m
Waning Gibbous, 68% of the Moon is Illuminated
Dec 23
Waning Gibbous
Dec 25
Last Quarter
Jan 1
New
Jan 7
First Quarter
Jan 15
Full

Hourly Weather History & Observations

Time (EST) Temp. Windchill Dew Point Humidity Pressure Visibility Wind Dir Wind Speed Gust Speed Precip Events Conditions
12:15 AM 33.8 °F 25.3 °F 32.0 °F 93% 29.99 in 10.0 mi WSW 11.5 mph - 0.00 in   Overcast
12:35 AM 33.8 °F 26.4 °F 32.0 °F 93% 29.99 in 5.0 mi WSW 9.2 mph - 0.00 in   Overcast
12:55 AM 33.8 °F 24.8 °F 33.8 °F 100% 29.99 in 10.0 mi West 12.7 mph - 0.00 in   Overcast
1:15 AM 33.8 °F 25.3 °F 32.0 °F 93% 30.01 in 9.0 mi WSW 11.5 mph - 0.00 in   Overcast
1:35 AM 33.8 °F 25.8 °F 32.0 °F 93% 30.01 in 10.0 mi West 10.4 mph - 0.00 in   Overcast
1:55 AM 33.8 °F 24.8 °F 32.0 °F 93% 30.01 in 10.0 mi West 12.7 mph - 0.00 in   Overcast
2:15 AM 33.8 °F 24.8 °F 32.0 °F 93% 30.02 in 10.0 mi West 12.7 mph - 0.00 in   Overcast
2:35 AM 33.8 °F 25.3 °F 32.0 °F 93% 30.02 in 10.0 mi West 11.5 mph - 0.00 in   Overcast
2:55 AM 32.0 °F 23.0 °F 32.0 °F 100% 30.03 in 10.0 mi West 11.5 mph 17.3 mph 0.00 in   Overcast
3:15 AM 32.0 °F 23.0 °F 32.0 °F 100% 30.05 in 10.0 mi West 11.5 mph - 0.00 in   Overcast
3:35 AM 32.0 °F 23.6 °F 32.0 °F 100% 30.06 in 10.0 mi West 10.4 mph - 0.00 in   Overcast
3:55 AM 32.0 °F 23.0 °F 30.2 °F 93% 30.07 in 10.0 mi West 11.5 mph - 0.00 in   Overcast
4:15 AM 32.0 °F 22.5 °F 30.2 °F 93% 30.06 in 10.0 mi West 12.7 mph - 0.00 in   Overcast
4:35 AM 32.0 °F 24.8 °F 30.2 °F 93% 30.08 in 10.0 mi West 8.1 mph - 0.00 in   Overcast
4:55 AM 32.0 °F 23.6 °F 30.2 °F 93% 30.07 in 10.0 mi West 10.4 mph 18.4 mph 0.00 in   Overcast
5:15 AM 32.0 °F 23.6 °F 30.2 °F 93% 30.08 in 10.0 mi West 10.4 mph 16.1 mph 0.00 in   Overcast
5:35 AM 32.0 °F 23.6 °F 28.4 °F 87% 30.08 in 10.0 mi West 10.4 mph - 0.00 in   Overcast
5:55 AM 32.0 °F 23.0 °F 28.4 °F 87% 30.09 in 10.0 mi West 11.5 mph - 0.00 in   Overcast
6:15 AM 32.0 °F 23.6 °F 30.2 °F 93% 30.09 in 10.0 mi West 10.4 mph - 0.00 in   Overcast
6:35 AM 32.0 °F 23.6 °F 30.2 °F 93% 30.10 in 10.0 mi West 10.4 mph - 0.00 in   Overcast
6:55 AM 32.0 °F 23.0 °F 28.4 °F 87% 30.12 in 10.0 mi West 11.5 mph - 0.00 in   Overcast
7:15 AM 32.0 °F 23.0 °F 28.4 °F 87% 30.13 in 10.0 mi West 11.5 mph 18.4 mph 0.00 in   Overcast
7:35 AM 30.2 °F 19.8 °F 28.4 °F 93% 30.15 in 10.0 mi West 13.8 mph 21.9 mph 0.00 in   Overcast
7:55 AM 30.2 °F 19.8 °F 26.6 °F 86% 30.17 in 10.0 mi West 13.8 mph 17.3 mph 0.00 in   Overcast
8:15 AM 30.2 °F 20.8 °F 26.6 °F 86% 30.18 in 10.0 mi West 11.5 mph - 0.00 in   Overcast
8:35 AM 30.2 °F 21.9 °F 26.6 °F 86% 30.19 in 10.0 mi West 9.2 mph - 0.00 in   Overcast
8:55 AM 30.2 °F 21.3 °F 26.6 °F 86% 30.20 in 10.0 mi West 10.4 mph - 0.00 in   Overcast
9:15 AM 30.2 °F 19.8 °F 26.6 °F 86% 30.21 in 10.0 mi West 13.8 mph 19.6 mph 0.00 in   Overcast
9:35 AM 30.2 °F 21.3 °F 26.6 °F 86% 30.22 in 10.0 mi West 10.4 mph - 0.00 in   Overcast
9:55 AM 30.2 °F 21.3 °F 26.6 °F 86% 30.23 in 10.0 mi West 10.4 mph - 0.00 in   Overcast
10:15 AM 30.2 °F 21.3 °F 26.6 °F 86% 30.24 in 10.0 mi WNW 10.4 mph - 0.00 in   Overcast
10:35 AM 30.2 °F 21.3 °F 26.6 °F 86% 30.25 in 7.0 mi West 10.4 mph - 0.00 in   Overcast
10:55 AM 30.2 °F 21.3 °F 26.6 °F 86% 30.26 in 9.0 mi West 10.4 mph - 0.00 in   Overcast
11:15 AM 30.2 °F 20.8 °F 26.6 °F 86% 30.26 in 10.0 mi West 11.5 mph - 0.00 in   Overcast
11:35 AM 30.2 °F 20.2 °F 26.6 °F 86% 30.26 in 10.0 mi West 12.7 mph - 0.00 in   Overcast
11:55 AM 30.2 °F 20.8 °F 26.6 °F 86% 30.26 in 10.0 mi West 11.5 mph 16.1 mph 0.00 in   Overcast
12:15 PM 30.2 °F 20.8 °F 24.8 °F 80% 30.26 in 10.0 mi West 11.5 mph 18.4 mph 0.00 in   Overcast
12:35 PM 30.2 °F 21.3 °F 23.0 °F 75% 30.26 in 10.0 mi West 10.4 mph 17.3 mph 0.00 in   Overcast
12:55 PM 32.0 °F 23.0 °F 23.0 °F 69% 30.25 in 10.0 mi West 11.5 mph - 0.00 in   Overcast
1:15 PM 30.2 °F 19.8 °F 23.0 °F 75% 30.25 in 10.0 mi West 13.8 mph - 0.00 in   Overcast
1:35 PM 30.2 °F 20.8 °F 23.0 °F 75% 30.26 in 10.0 mi West 11.5 mph - 0.00 in   Overcast
1:55 PM 30.2 °F 19.8 °F 23.0 °F 75% 30.26 in 10.0 mi WSW 13.8 mph - 0.00 in   Overcast
2:15 PM 30.2 °F 19.8 °F 23.0 °F 75% 30.26 in 10.0 mi West 13.8 mph - 0.00 in   Overcast
2:35 PM 30.2 °F 21.3 °F 23.0 °F 75% 30.27 in 10.0 mi West 10.4 mph - 0.00 in   Overcast
2:55 PM 30.2 °F 21.9 °F 23.0 °F 75% 30.27 in 10.0 mi West 9.2 mph - 0.00 in   Overcast
3:15 PM 28.4 °F 19.7 °F 23.0 °F 80% 30.27 in 10.0 mi West 9.2 mph - 0.00 in   Overcast
3:35 PM 28.4 °F 21.2 °F 21.2 °F 74% 30.27 in 10.0 mi West 6.9 mph - 0.00 in   Overcast
3:55 PM 28.4 °F 21.2 °F 23.0 °F 80% 30.28 in 10.0 mi West 6.9 mph - 0.00 in   Overcast
4:15 PM 28.4 °F 19.7 °F 23.0 °F 80% 30.28 in 10.0 mi West 9.2 mph - 0.00 in   Overcast
4:35 PM 28.4 °F 18.0 °F 23.0 °F 80% 30.28 in 10.0 mi West 12.7 mph - 0.00 in   Overcast
4:55 PM 28.4 °F 19.7 °F 21.2 °F 74% 30.29 in 10.0 mi West 9.2 mph - 0.00 in   Overcast
5:15 PM 28.4 °F 18.5 °F 21.2 °F 74% 30.29 in 10.0 mi WSW 11.5 mph - 0.00 in   Overcast
5:35 PM 28.4 °F 18.0 °F 21.2 °F 74% 30.29 in 10.0 mi WSW 12.7 mph 18.4 mph 0.00 in   Overcast
5:55 PM 28.4 °F 19.1 °F 21.2 °F 74% 30.30 in 10.0 mi West 10.4 mph - 0.00 in   Overcast
6:15 PM 26.6 °F 16.2 °F 21.2 °F 80% 30.30 in 10.0 mi West 11.5 mph - 0.00 in   Overcast
6:35 PM 26.6 °F 17.5 °F 21.2 °F 80% 30.30 in 10.0 mi West 9.2 mph - 0.00 in   Overcast
6:55 PM 26.6 °F 16.8 °F 21.2 °F 80% 30.30 in 10.0 mi WSW 10.4 mph - 0.00 in   Overcast
7:15 PM 26.6 °F 15.7 °F 21.2 °F 80% 30.31 in 10.0 mi WSW 12.7 mph - 0.00 in   Overcast
7:35 PM 26.6 °F 16.2 °F 19.4 °F 74% 30.31 in 10.0 mi WSW 11.5 mph - 0.00 in   Overcast
7:55 PM 26.6 °F 17.5 °F 19.4 °F 74% 30.31 in 10.0 mi WSW 9.2 mph - 0.00 in   Overcast
8:15 PM 26.6 °F 16.8 °F 19.4 °F 74% 30.31 in 10.0 mi West 10.4 mph - 0.00 in   Overcast
8:35 PM 26.6 °F 18.2 °F 19.4 °F 74% 30.30 in 10.0 mi West 8.1 mph - 0.00 in   Overcast
8:55 PM 26.6 °F 16.2 °F 19.4 °F 74% 30.30 in 10.0 mi West 11.5 mph 17.3 mph 0.00 in   Overcast
9:15 PM 26.6 °F 19.1 °F 19.4 °F 74% 30.30 in 10.0 mi West 6.9 mph - 0.00 in   Overcast
9:35 PM 26.6 °F 16.2 °F 19.4 °F 74% 30.30 in 10.0 mi West 11.5 mph - 0.00 in   Overcast
9:55 PM 26.6 °F 19.1 °F 19.4 °F 74% 30.30 in 10.0 mi West 6.9 mph - 0.00 in   Overcast
10:15 PM 26.6 °F 17.5 °F 19.4 °F 74% 30.30 in 10.0 mi West 9.2 mph - 0.00 in   Overcast
10:35 PM 26.6 °F 17.5 °F 19.4 °F 74% 30.30 in 10.0 mi West 9.2 mph - 0.00 in   Overcast
10:55 PM 26.6 °F 18.2 °F 19.4 °F 74% 30.30 in 10.0 mi WSW 8.1 mph - 0.00 in   Overcast
11:15 PM 26.6 °F 16.8 °F 21.2 °F 80% 30.29 in 10.0 mi WSW 10.4 mph - 0.00 in   Overcast
11:35 PM 24.8 °F 14.0 °F 21.2 °F 86% 30.29 in 5.0 mi NW 11.5 mph - 0.00 in   Overcast
11:55 PM 23.0 °F 10.1 °F 19.4 °F 86% 30.29 in 4.0 mi WNW 15.0 mph 18.4 mph 0.00 in   Overcast